Погода Сурское

Погода Сурское : погода сейчас, прогноз погоды и архив. Всё, что Вы хотите узнать о погоде Сурское!

Поиск расширенной информации на нашем сайте:

Другие новости

Новости СМИ2

Главная страница сайта

Новости сайта

03.07.2017

Напоминаем, что на нашем специализированном сайте Метеоцентр.Азия вы можете получить высокодетализированные автоматические прогнозы погоды по пунктам России, СНГ и мира в авиационном формате (включающие направление и скорость ветра, видимость, явления погоды, количество и форму облачности, нижнюю и верхнюю границу облачности).

Рекомендуем: Первые признаки беременности.

Погода Сурское - сегодня

Время (UTC), дата Ветер
(°,м/с) 
Видим.   Явления Облачность Т
(°С)
Тd
(°С)
f(%) Тe
(°С)
Pmin
(гПа)
dP
(гПа)
Po
(мм)
O2
(г/м3)
Тmin Tmax R s Состояние
почвы
18 17.11.17 270 (З) 20000 м  {снег}  8/0 средняя 
[Ac lent]
+1.3 -0.7 86 +1  1023.2  0.9  758  304           
21 17.11.17 230 (ЮЗ) 3{10}  20000 м    10/0 средняя 
[Ac und]
+1.3 -0.1 90 1022.8  -0.4  758  304           
00 18.11.17 230 (ЮЗ) 3{10}  20000 м    10/10 630 м 
[Sc]
+1.3 +0.5 94 1021.8  -1  757  303           
03 18.11.17 240 (ЮЗ) 5-13  20000 м    10/10 630 м 
[Sc]
+0.1 -2.9 80 -3  1021.9  0.1  757  305  -0.2        замёрзшая 
06 18.11.17 210 (ЮЗ) 5-12{13}  20000 м    9/0 средняя 
[Ac trans]
-0.2 -3.5 78 -3  1021.6  -0.3  757  306  -0.4         
09 18.11.17 240 (ЮЗ) 4-10{12}  20000 м    10/8 630 м средняя 
[Sc|Ac As]
+0.6 -3.1 76 -2  1021.8  0.2  757  305           
12 18.11.17 260 (З) 20000 м    10/0 средняя 
[Ac As]
+1.4 -2.7 74 +1  1021.9  0.1  757  304    -0.1       
15 18.11.17 220 (ЮЗ) 20000 м    10/10 700 м 
[Sc]
+1.8 -1.6 78 +1  1021.8  757  303    +1.9       
18 18.11.17 220 (ЮЗ) 20000 м    10/5 600 м средняя 
[Sc|Ac As]
+1.8 -1.3 80 +3  1021.9  0.1  757  303           
21 18.11.17 190 (Ю) 20000 м    10/10 660 м 
[Sc]
+1.9 -1.5 78 +3  1022.2  0.3  757  303           
00 19.11.17 180 (Ю) 20000 м    10/0 средняя 
[Ac As]
+0.9 -0.5 90 1022.1  -0.2  757  304           
03 19.11.17 170 (Ю) 20000 м    10/10 660 м 
[Sc]
+1.3 -1.6 81 +1  1021.5  -0.6  757  304  +0.6        влажная 
06 19.11.17 180 (Ю) 20000 м    10/10 630 м 
[Sc]
+1.1 -2.1 79 1021.5  757  304           
09 19.11.17 170 (Ю) 20000 м    10/10 660 м 
[Sc]
+2.5 -3.1 66 +1  1020.8  -0.6  756  302           
12 19.11.17 150 (ЮВ) 20000 м    10/4 600 м средняя 
[Sc|Ac As]
+2.5 -2.1 72 +2  1019.5  -1.3  755  302           
15 19.11.17 110 (В) 20000 м    10/4 600 м средняя 
[Sc|Ac As]
+2.3 -1.7 75 +2  1018.7  -0.8  755  302    +2.6       
18 19.11.17 150 (ЮВ) 6000 м  слаб. дождь  10/6 600 м средняя 
[Sc|As op]
+2.2 -0.5 82 +1  1017.4  -1.3  754  301           
21 19.11.17 160 (Ю) 5000 м  слаб. дождь  10/0 средняя 
[As op]
+2.3 +0.7 89 +2  1016.2  -1.2  753  301           
00 20.11.17 160 (Ю) 20000 м  в посл. час дождь  10/0 средняя 
[Ac As]
+2.1 +0.8 91 +3  1015.2  -1  752  301           
03 20.11.17 130 (ЮВ) 20000 м  {дождь}  10/10 600 м 
[Sc]
+2.5 +1.2 91 +3  1014.6  -0.5  752  300  +1.8    0.8    влажная 
06 20.11.17 160 (Ю) 20000 м  {дождь}  10/10 600 м 
[Sc]
+3.2 +1.9 91 +4  1014.7  0.1  752  299           
09 20.11.17 190 (Ю) 4000 м  слаб. дождь  10/6 300 м средняя 
[St|As op]
+4.3 +3.1 92 +4  1015.3  0.6  752  298           
12 20.11.17 180 (Ю) 20000 м  {дождь}  10/10 630 м 
[Sc]
+4.8 +4.3 97 +6  1015.5  0.2  752  297           
15 20.11.17 140 (ЮВ) 20000 м    10/5 600 м средняя 
[Sc|Ac As]
+4.6 +3.9 95 +5  1015.5  752  298    +4.9     
18 20.11.17 100 (В) 20000 м    10/10 630 м 
[Sc]
+4.5 +3.8 95 +5  1015.1  -0.4  752  298           
Время (UTC), дата Ветер
(°,м/с) 
Видим.   Явления Облачность Т
(°С)
Тd
(°С)
f(%) Тe
(°С)
Pmin
(гПа)
dP
(гПа)
Po
(мм)
O2
(г/м3)
Тmin Tmax R s Состояние
почвы

Для получения пояснительной информации подведите курсор к названию столбца.

ПОГОДА Сурское - архив

Всё, что Вы хотите узнать о погоде Сурское - удобно и подробно!

Выберите нужную дату (начиная с 1 января 2015* года) и нажмите кнопку "Найти".
Будут отображены архивные сводки погоды по пункту Сурское, начиная с указанной даты.


Отображать данные в формате CSV (для использования в таблицах Excel)


Внимание! Наш архив погоды предназначен исключительно для личного некоммерческого использования в познавательных целях. Если Вам необходимы официальные справки о состоянии погоды (для производственных, юридических, коммерческих и т.п. целей), обращайтесь в органы Росгидромета.

*Примечание: данная дата относится к архиву по метеостанциям СССР (Россия, СНГ, Балтия).
Архив по метеостанциям Зарубежной Европы и Азии (кроме Китая) хранится 10 дней, по другим регионам земного шара (Китай, Африка, Америка, Австралия, Океания) - 1 день.

Сурское - район местоположения метеостанции


Название, широта, долгота, высота метеостанции:
Сурское 54.5°ш. 46.7°д. 100 м над ур. моря [Российская Федерация]

Дополнительная информация

В oтличие oт бoльшинства пoгoдных сайтoв мы публикуем пoдрoбную метеoинфoрмацию в детальнoм прoфессиoнальнoм фoрмате.

Характеристики температуры и влажнoсти вoздуха измеряются на высoте 2 м в тени вдали oт зданий и деревьев.
Скoрoсть ветра измеряется на высoте 10 м (на урoвне рoста челoвека скoрoсть ветра ниже в 1.5-2 раза). Если метеoстанция нахoдится в гoрoде или в лесу, тo скoрoсть ветра занижена на 2-4 м/с пo сравнению с oткрытым местoм. Скoрoсть ветра над акватoриями крупных рек и oзёр, а также на вершинах хoлмoв на 2-5 м/с выше, чем в oбычных услoвиях.
Атмoсфернoе давление в разных тoчках местнoсти мoжет значительнo oтличаться oт давления на метеoстанции, в зависимoсти oт услoвий рельефа (при пoдъёме на 10 м давление пoнижается примернo на 1 мм рт.ст.).